Other Public Products
Issued by NWS Grand Forks, ND

Home | Current Version | Previous Version | Text Only | Print | Product List | Glossary Off
Versions: 1 2 3 4 5 6 7 8 9 10 11 12 13 14 15 16 17 18 19 20 21 22 23 24 25 26 27 28 29 30 31 32 33 34 35 36 37 38 39 40 41 42 43 44 45 46 47 48 49 50

000
FPUS83 KFGF 280231
OPUFGF
PRAIRIE TO PINES WEATHER ROUNDUP
NATIONAL WEATHER SERVICE EASTERN NORTH DAKOTA/GRAND FORKS ND
900 PM CDT THU AUG 27 2015

 **SATELLITE DATA USED TO AUGMENT SKY COVER AT AUTOMATED STATIONS**
 *****  WEATHER ACROSS EASTERN NORTH DAKOTA  *****

CITY           SKY/WX    TMP DP  RH WIND       PRES   REMARKS
GRAND FORKS    PTCLDY    69  63  81 SE3       29.89S
GRAND FORKS AF CLEAR     67  63  89 SE6       29.90R
GRAND CITY NWS   N/A     70 N/A N/A SW1         N/A
BUXTON         NOT AVBL
DEVILS LAKE    PTCLDY    70  63  78 SE7       29.87F
FARGO          PTCLDY    70  65  84 SE5       29.90S
WAHPETON ARPT  CLOUDY    68  63  83 SE6       29.93R
$$

 *****  WEATHER ACROSS CENTRAL AND WESTERN NORTH DAKOTA  *****

CITY           SKY/WX    TMP DP  RH WIND       PRES   REMARKS
JAMESTOWN      CLEAR     70  67  90 SE7       29.90F
BISMARCK       CLEAR     75  62  64 S9        29.91S
MINOT          PTCLDY    71  64  78 CALM      29.86S
MINOT AFB      PTCLDY    71  67  89 S6        29.85S
GARRISON         N/A     71  64  78 S5        29.89S
WILLISTON      MOCLDY    78  64  61 CALM      29.88R
DICKINSON      MOCLDY    74  59  59 SE9       29.91R
HETTINGER      MOCLDY    72  57  59 SE8       29.95S
$$

 *****  OTHER OBSERVATIONS NORTHEAST NORTH DAKOTA  *****

CITY           SKY/WX    TMP DP  RH WIND       PRES   REMARKS
WALHALLA       FAIR      70  70 100 MISG      29.86F
LANGDON        FAIR      64  61  88 S8        29.90R
CAVALIER       FAIR      66  63  88 S3        29.86F
GRAFTON        FAIR      66  66 100 SE8       29.88F
CANDO          FAIR      64  63  94 S5        29.89R
FORT TOTTEN      N/A     71  65  82 SE5       29.95
ROLLA          MOCLDY    63  61  94 SW6       29.89S
RUGBY          FAIR      68  68 100 SE6       29.87S
 ***** THE ABOVE OBSERVATIONS ARE NON NWS ARE NOT QUALITY
        CONTROLLED AND MAY MIS-REPORT RAIN FOR SNOW...
$$

 *****  OTHER OBSERVATIONS SOUTHEAST NORTH DAKOTA *****

CITY           SKY/WX    TMP DP  RH WIND       PRES   REMARKS
COOPERSTOWN    NOT AVBL
VALLEY CITY    FAIR      68  68 100 S5        29.92R
OAKES            N/A     70  70 100 S7        29.93S
GWINNER          N/A     70  70 100 SW7       29.93R
SHEYENNE NWR     N/A     70  68  92 S5        29.95
BUFFALO        NOT AVBL
WYNDMERE         N/A     66  64  94 S3          N/A
 ***** THE ABOVE OBSERVATIONS ARE NON NWS ARE NOT QUALITY
       CONTROLLED AND MAY MIS-REPORT RAIN FOR SNOW...
$$

  *****  WEATHER ACROSS NORTHERN MINNESOTA  *****

CITY           SKY/WX    TMP DP  RH WIND       PRES   REMARKS
FLAG ISLAND    CLEAR     66  63  88 CALM      29.89S FOG
WARROAD        CLEAR     63  57  82 CALM      29.91S
ROSEAU         CLEAR     64  61  88 CALM      29.91R
HALLOCK        CLEAR     66  61  82 SE6       29.88S
THF RVR FALLS  CLEAR    N/A N/A N/A CALM      29.92R
HALSTAD        NOT AVBL
FOSSTON        CLEAR     63  61  94 CALM      29.94S
BAUDETTE       CLEAR     66  61  84 S5        29.92S
WASKISH        CLEAR     66  63  88 CALM      29.94R
CROOKSTON      CLEAR     64  63  94 S3        29.92R
$$
  *****  WEATHER ACROSS CENTRAL AND WEST MINNESOTA  *****

CITY           SKY/WX    TMP DP  RH WIND       PRES   REMARKS
BEMIDJI        PTCLDY    66  63  90 S3        29.95R
PARK RAPIDS    CLOUDY    71  64  78 S7        29.96R
WADENA         CLOUDY    64  63  94 CALM      29.96S
DETROIT LAKES  MOCLDY    68  64  88 S3        29.95S
MOORHEAD       PTCLDY    70  66  88 SE6       29.92S
FERGUS FALLS   CLOUDY    70  64  83 SE3       29.93S
ELBOW LAKE     FAIR      68  66  93 SE6       29.94S
MORRIS MN      CLOUDY    66  66 100 SE7       29.94S
STAPLES        CLOUDY    64  63  94 CALM      29.97S
WHEATON        CLOUDY    64  63  94 SE6       29.94S
$$
  *****  WEATHER ELSEWHERE ACROSS MINNESOTA  *****

CITY           SKY/WX    TMP DP  RH WIND       PRES   REMARKS
DULUTH         PTCLDY    58  53  84 E5        30.01R
INTRNTL FALLS  MOCLDY    63  59  87 CALM      29.94S
ELY            CLOUDY    66  57  72 S6        30.00S
CLOQUET        CLOUDY    59  52  77 CALM      30.01S
BRAINERD       CLOUDY    68  63  84 SE5       29.98R
HIBBING        CLOUDY    68  60  75 SE5       29.99R
ALEXANDRIA     CLOUDY    69  66  90 S8        29.98R
SAINT CLOUD    MOCLDY    66  61  84 S9        29.99R
MINNEAPOLIS    CLOUDY    68  59  73 SE8       30.01S
$$

  *****  WEATHER ACROSS SOUTH DAKOTA  *****

CITY           SKY/WX    TMP DP  RH WIND       PRES   REMARKS
SIOUX FALLS    TSTM      67  63  87 SE8       29.97F
BROOKINGS      CLOUDY    68  63  83 SE9       29.98S
WATERTOWN      CLOUDY    70  66  87 SE8       29.94F
HURON          CLOUDY    73  67  81 SE12      29.92R
SISSETON         N/A     68  65  90 S3        29.92S
ABERDEEN       CLOUDY    71  67  87 NE3       29.93S
MITCHELL       LGT RAIN  70  69  97 E9        29.92R
PIERRE         CLOUDY    70  67  90 E7        29.92R
MOBRIDGE       MOCLDY    68  65  90 E7        29.91S
RAPID CITY     CLEAR     67  61  81 S5        30.00S
$$

  *****  SOME WEATHER IN NEARBY STATES *****

CITY           SKY/WX    TMP DP  RH WIND       PRES   REMARKS
GLASGOW MT     PTCLDY    80  56  43 SE5       29.85S
GREAT FALLS MT CLOUDY    80  39  23 SW14      29.95F HAZE
CHEYENNE WY    MOCLDY    69  49  48 N5        30.19S
SCOTTSBLUFF NE PTCLDY    68  57  68 NE7       30.04R
OMAHA NE       CLOUDY    75  67  76 SE17      29.91S
DES MOINES IA  MOCLDY    70  60  70 SE13      30.00F
DAVENPORT IA   PTCLDY    60  57  89 E3        30.10F
CHICAGO IL     MOCLDY    66  55  67 E6        30.12S
EAU CLAIRE WI  CLOUDY    67  58  72 S5        30.05R
LA CROSSE WI   PTCLDY    70  61  73 S7        30.07R
$$

  *****  SOME NATIONAL WEATHER *****

CITY           SKY/WX    TMP DP  RH WIND       PRES   REMARKS
LA GUARDIA NY  PTCLDY    73  53  49 NW10      30.10R
RALEIGH NC     PTCLDY    71  59  65 E5        30.12R
ATLANTA GA     PTCLDY    78  64  61 NE10      30.07R
NEW ORLEANS LA PTCLDY    80  57  45 CALM      29.98R
OKLAHOMA CITY  MOCLDY    82  67  60 SE10      29.97R
ALBUQUERQUE NM MOCLDY    79  56  45 SW10      30.16F
SALT LAKE CITY PTCLDY    84  46  26 NW5       30.12F
LOS ANGELES CA PTCLDY    77  69  76 W12       29.87F
BOISE ID       CLEAR     87  38  17 N5        30.00F
SEATTLE WA     MOCLDY    81  46  29 S5        29.97F
$$

*** WEATHER ACROSS MANITOBA...SASKATCHEWAN AND ONTARIO ***
                ***ONTARIO***

CITY           SKY/WX    TMP DP  RH WIND       PRES   REMARKS
GERALDTON      PTCLDY    55  48  76 S7        29.98S
THUNDER BAY    PTCLDY    54  48  82 NE5       30.00R
SIOUX LOOKOUT  MOCLDY    55  55 100 S3        29.94S
TORONTO        PTCLDY    63  52  67 NE2       30.16S
BIG TROUT LK   MOCLDY    52  52 100 CALM      29.89R
PICKLE LAKE    CLOUDY    66  54  63 SW9       29.90R
DRYDEN         CLEAR     64  55  72 S6        29.93F
KENORA         PTCLDY    66  55  68 S5        29.92S
$$
                *** MANITOBA***

CITY           SKY/WX    TMP DP  RH WIND       PRES   REMARKS
BRANDON        MOCLDY    68  59  73 CALM      29.84S
DAUPHIN        CLEAR     66  63  88 SE3       29.81S
ISLAND LAKE    LGT RAIN  61  55  82 NE5       29.86S
PILOT MOUND      N/A     68  63  83 S9          N/A
THE PAS        CLOUDY    64  57  77 SE6       29.79S
THOMPSON       PTCLDY    54  50  87 CALM      29.81S
WINNIPEG       CLEAR     70  63  78 S9        29.85F
LYNN LAKE      MOCLDY    59  50  72 MISG      29.77F
CHURCHILL      MOCLDY    50  48  93 E7        29.76S
GILLAM         PTCLDY    55  50  82 S3        29.82S
$$
                ***SASKATCHEWAN***

CITY           SKY/WX    TMP DP  RH WIND       PRES   REMARKS
ESTEVAN        CLOUDY    72  61  68 S9        29.83F HAZE
KINDERSLEY     MOCLDY    64  59  82 NE6       29.83F
LLOYDMINSTER   MOCLDY    66  55  68 SW5       29.81F
PRINCE ALBERT  MOCLDY    64  61  88 CALM      29.79F
REGINA         MOCLDY    75  63  64 N7        29.78S SMOKE


USA.gov is the U.S. government's official web portal to all federal, state and local government web resources and services.